Regional Weather Roundup
Issued by NWS

Home | Current Version | Previous Version | Text Only | Print | Product List | Glossary Off
Versions: 1 2 3 4 5 6 7 8 9 10 11 12 13 14 15 16 17 18 19 20 21 22 23 24 25 26 27 28 29 30 31 32 33 34 35 36 37 38 39 40 41 42 43 44 45 46 47 48 49 50

230
ASUS45 KBOU 182207
RWRCO

WEATHER ROUNDUP FOR COLORADO
NATIONAL WEATHER SERVICE DENVER/BOULDER CO
400 PM MDT MON SEP 18 2017

NOTE: "FAIR" INDICATES FEW OR NO CLOUDS BELOW 12000 FEET WITH NO
SIGNIFICANT WEATHER AND/OR OBSTRUCTIONS TO VISIBILITY.

COZ001>005-013-030-031-182300-
...NORTHWEST COLORADO...

CITY           SKY/WX    TMP DP  RH WIND       PRES   REMARKS
CRAIG          FAIR      77  26  15 SW17G29   29.98F
HAYDEN         FAIR      74  28  18 SW15G24   30.01F
MEEKER         FAIR      75  31  19 SW8       30.00F
RABBIT EARS PA FAIR      55  28  35 W8        30.27F
STEAMBOAT SPGS PTSUNNY   73  29  19 SW10G16   30.02F
WALDEN         FAIR      66  25  20 SW14G20   30.13S
$$

COZ006>008-011-182300-
...WEST CENTRAL VALLEYS...

CITY           SKY/WX    TMP DP  RH WIND       PRES   REMARKS
GRAND JUNCTION FAIR      81  38  21 W9        29.92F
MONTROSE       FAIR      79  30  16 W13       30.01F
EAGLE          FAIR      76  31  19 W13G26    30.04
RIFLE          FAIR      78  32  18 W13       29.96F
DELTA          FAIR      83  34  17 MISG      29.98S
NUCLA          FAIR      79  23  12 SW18G24   30.08F
$$

COZ017>023-064>068-182300-
...SOUTHWEST COLORADO...

CITY           SKY/WX    TMP DP  RH WIND       PRES   REMARKS
DURANGO        FAIR      73  20  13 VRB5      30.15F
CORTEZ         FAIR      77  21  12 SW13      30.08F
PAGOSA SPRINGS FAIR      69  18  14 W6        30.22F
TELLURIDE      FAIR      66  25  20 SW14G24   30.25S
WOLF CREEK PAS FAIR      46  25  42 S22G36    30.48F
$$

COZ009-010-012-014-032>034-037-058>063-182300-
...CENTRAL COLORADO...

CITY           SKY/WX    TMP DP  RH WIND       PRES   REMARKS
ASPEN          FAIR      71  28  20 S12       30.10F
BUENA VISTA    FAIR      69  21  16 CALM      30.13F
COPPER MTN     FAIR      55  25  30 SW5       30.40S
BERTHOUD PASS  FAIR      46  37  71 SW13G29   30.41F
COTTONWOOD PAS FAIR      66  21  18 SW3       30.27F
GUNNISON       FAIR      69  35  28 W10       30.13F
KREMMLING      FAIR      79  23  12 SW12G17   30.09F
LEADVILLE      FAIR      58  24  27 SW9G17    30.24F
MONARCH PASS   FAIR      54  32  43 W25G32    30.51F
SALIDA         FAIR      74  36  25 S14G20    30.18F
SUNLIGHT       FAIR      57  30  35 SW13G24   30.33F
WILKERSON PASS FAIR      55  23  28 SW15G22   30.37S
$$

COZ069>075-182300-
...SAN LUIS VALLEY/SANGRE DE CRISTO MOUNTAINS...

CITY           SKY/WX    TMP DP  RH WIND       PRES   REMARKS
ALAMOSA        FAIR      74  28  18 S20       30.14F
DEL NORTE      FAIR      71  32  23 SW10G21   30.17F
LA VETA PASS   FAIR      63  28  27 MISG      30.42F
SAGUACHE       FAIR      68  37  32 SE8       30.17F
$$

COZ035-036-038>040-182300-
...NORTHERN COLORADO FRONT RANGE...

CITY           SKY/WX    TMP DP  RH WIND       PRES   REMARKS
DENVER INTL AP FAIR      82  28  14 SE8       29.93F
DMNS CITY PARK   N/A     80  30  15 E14G21    29.91F
AURORA         MOSUNNY   80  31  16 E10       29.95F
FRONT RANGE AP MOSUNNY   82  27  13 SE8       29.96F
ERIE MUNI ARPT FAIR      83  25  11 SE10G17   29.95F
BOULDER MUN AP FAIR      82  32  16 SE7       29.91S
CENTENNIAL     FAIR      79  29  16 SE10      29.95F
BROOMFIELD     MOSUNNY   82  28  14 SE9       29.94F
FORT COLLINS   FAIR      82  32  16 SE13G21   29.91F
LONGMONT       FAIR      85  31  14 E10G18    29.91F
$$

COZ041-046-047-076>085-087-088-182300-
...PIKES PEAK/PALMER DIVIDE AND SOUTHERN FOOTHILLS...

CITY           SKY/WX    TMP DP  RH WIND       PRES   REMARKS
COLO. SPRINGS  FAIR      80  34  19 S16       30.01F
A. F. ACADEMY  FAIR      76  29  18 SE12      30.02F
SCHRIEVER AFB  FAIR      77  30  17 S15       30.03F
CHEYENNE MTN   NOT AVBL
ELLICOTT       NOT AVBL
FALCON         FAIR      76  29  17 S5        30.07F
FORT CARSON    FAIR      80  33  18 S17G26    29.97F
LIMON            N/A    N/A N/A N/A MISG      29.97F
MONUMENT HILL  FAIR      73  32  21 S13G21    30.08F
CANON CITY     SUNNY     84  36  17 W12G22    29.96F
WALSENBURG     FAIR      82  30  15 SW13G18   30.02F
TRINIDAD       FAIR      80  43  26 S8        30.01F
$$

COZ042>045-048>051-090-091-182300-
...NORTHEAST COLORADO...

CITY           SKY/WX    TMP DP  RH WIND       PRES   REMARKS
GREELEY ARPT   FAIR      83  33  16 SE12      29.91F
AKRON          FAIR      81  33  17 MISG      29.93F
BURLINGTON     FAIR      83  38  20 CALM      29.94F
WRAY           FAIR      88  32  13 W3        29.89F
YUMA           FAIR      81  32  17 W6        29.91S
STERLING       FAIR      84  30  14 W7        29.88F
HOLYOKE        FAIR      88  30  12 W6        29.89F
FORT MORGAN    FAIR      83  28  13 SE8       29.93S
$$

COZ086-089-092>099-182300-
...SOUTHEAST COLORADO...

CITY           SKY/WX    TMP DP  RH WIND       PRES   REMARKS
PUEBLO         FAIR      84  33  16 MISG      29.92F
LA JUNTA       FAIR      86  35  16 CALM      29.92F
LAMAR          FAIR      89  34  14 NW8       29.89F
SPRINGFIELD      N/A     84  44  24 SW8       29.95F
$$




USA.gov is the U.S. government's official web portal to all federal, state and local government web resources and services.